Racecast

Mateo Espinoza

Phenom Elite (CA) · - · Compare head to head

Athlete rating
Races 61
Seasons 4 2013 — 2016
Speed rating — all races

Track & Field

TF speed rating

2016 TF

Phenom Elite (CA) · Grade -

Date Meet Event Result Place Rating Difficulty PR/SR Flags
2016-07-03 AAU West Coast National Track & Field Championships lj 14-04.00 +0.004
2016-07-03 AAU West Coast National Track & Field Championships 200m 28.21 4th · 1st on team +0.004 ★PR SR
2016-07-03 AAU West Coast National Track & Field Championships 100m 13.57 3rd · 1st on team +0.004 ★PR SR
2016-06-04 M.P. Striders USATF Youth T&F Sectionals lj 13-07.50 -0.019
2016-06-04 M.P. Striders USATF Youth T&F Sectionals 100m 13.92 3rd · 1st on team -0.019
2016-06-04 M.P. Striders USATF Youth T&F Sectionals 200m 28.67 4th · 1st on team -0.019
2016-05-29 Central Valley Roadrunners USATF Youth lj 4.34m -0.030
2016-05-29 Central Valley Roadrunners USATF Youth 100m 13.74 11th · 1st on team -0.030 PR SR
2016-05-29 Central Valley Roadrunners USATF Youth 200m 28.34 9th · 1st on team -0.030 PR SR
2016-05-29 Central Valley Roadrunners USATF Youth 100m 13.81 12th · 2nd on team -0.030
2016-05-29 Central Valley Roadrunners USATF Youth 200m 28.73 11th · 2nd on team -0.030
2016-05-15 3M USATF Youth T&F Meet lj 3.92m -0.028
2016-05-15 3M USATF Youth T&F Meet 400m 1:09 19th · 1st on team -0.028 ★PR SR
2016-05-15 3M USATF Youth T&F Meet 200m 29.32 12th · 1st on team -0.028
2016-05-01 Tommie Smith Invitational 100m 13.92 14th · 2nd on team -0.036 PR SR
2016-05-01 Tommie Smith Invitational 200m 29.06 8th · 2nd on team -0.036
2016-05-01 Tommie Smith Invitational 100m 13.9 13th · 1st on team -0.036 PR SR
2016-04-17 CA Track Invitational 100m 14.45 7th · 2nd on team -0.025
2016-04-17 CA Track Invitational 200m 28.58 1st · 1st on team -0.025 PR SR
2016-04-09 Contra Costa Cheetahs Invitational 100m 14.4 13th · 1st on team -0.017 SR

2015 TF

Phenom Elite (CA) · Grade -

Date Meet Event Result Place Rating Difficulty PR/SR Flags
2015-05-16 3M Track Club Track and Field Invitation 200m 30 4th · 2nd on team -0.028
2015-05-16 3M Track Club Track and Field Invitation 100m 14.23 6th · 2nd on team -0.028 PR SR
2015-05-16 3M Track Club Track and Field Invitation 100m 14.73 12th · 4th on team -0.028
2015-05-16 3M Track Club Track and Field Invitation 400m 1:11.49 11th · 2nd on team -0.028 SR
2015-04-25 Revolution Express Track Club 100m 14.4 5th · 3rd on team -0.024
2015-04-25 Revolution Express Track Club 200m 30.96 5th · 3rd on team -0.024
2015-04-25 Revolution Express Track Club 400m 1:11.63 6th · 3rd on team -0.024 SR
2015-04-18 CA Track Club 200m 30.89 5th · 3rd on team -0.038
2015-04-18 CA Track Club 100m 14.31 4th · 2nd on team -0.038
2015-03-28 Contra Costa Cheetahs 200m 29.74 3rd · 3rd on team -0.017 SR
2015-03-28 Contra Costa Cheetahs 100m 14.24 5th · 3rd on team -0.017 PR SR
2015-03-21 RPM Legacy 100m 14.57 4th · 2nd on team -0.020 SR

2014 TF

Phenom Elite (CA) · Grade -

Date Meet Event Result Place Rating Difficulty PR/SR Flags
2014-05-24 Central Valley Roadrunners 200m 29.02 3rd · 1st on team -0.026 PR SR
2014-05-24 Central Valley Roadrunners 100m 14.49 10th · 6th on team -0.026 PR SR
2014-05-24 Central Valley Roadrunners 100m 14.37 9th · 5th on team -0.026 PR SR
2014-05-24 Central Valley Roadrunners 200m 29.93 6th · 4th on team -0.026
2014-04-05 Sacramento Speed Showcase 400m 1:10.7 4th · 2nd on team -0.033 PR SR
2014-04-05 Sacramento Speed Showcase 200m 31.7 8th · 3rd on team -0.033 SR
2014-04-05 Sacramento Speed Showcase 100m 14.59 11th · 2nd on team -0.033 PR SR
2014-03-29 East County Cheetahs TC javelin SCR -0.017
2014-03-29 East County Cheetahs TC 100m 15.07 3rd · 2nd on team -0.017
2014-03-22 RPM 400m 1:13.24 6th · 1st on team -0.012 PR SR
2014-03-22 RPM 100m 14.74 4th · 2nd on team -0.012 PR SR

2013 TF

Phenom Elite (CA) · Grade -

Date Meet Event Result Place Rating Difficulty PR/SR Flags
2013-06-01 100 Black Men Tommie Smith 200m 32.24 4th · 1st on team -0.036
2013-06-01 100 Black Men Tommie Smith 100m 15.14 8th · 2nd on team -0.036
2013-06-01 100 Black Men Tommie Smith 100m 14.89 6th · 1st on team -0.036
2013-05-25 Central Valley Roadrunners (2-day meet) 100m 15.11 14th · 4th on team -0.026
2013-05-25 Central Valley Roadrunners (2-day meet) 100m 15.03 13th · 3rd on team -0.026
2013-05-25 Central Valley Roadrunners (2-day meet) 200m 31.37 9th · 3rd on team -0.026 PR SR
2013-05-25 Central Valley Roadrunners (2-day meet) 200m 31.66 11th · 4th on team -0.026
2013-05-18 3M Track Club 100m 15.19 23rd · 2nd on team -0.028
2013-05-18 3M Track Club 200m 32.53 22nd · 4th on team -0.028 PR SR
2013-05-04 Hercules / Running Rebels (2-day) 100m 14.82 26th · 1st on team -0.038 PR SR
2013-05-04 Hercules / Running Rebels (2-day) 400m 1:20.42 29th · 3rd on team -0.038 PR SR
2013-04-27 Revolution Express Track Club 100m 15.32 16th · 2nd on team -0.024 PR SR
2013-04-27 Revolution Express Track Club 200m 33.08 10th · 2nd on team -0.024 PR SR
2013-04-13 CA Track Club javelin ND -0.038
2013-04-13 CA Track Club 200m 34 4th · 1st on team -0.038
2013-04-13 CA Track Club 100m 15.45 3rd · 1st on team -0.038 PR SR
2013-04-06 Sacramento Speed Showcase lj 8-05.50 -0.031
2013-04-06 Sacramento Speed Showcase 200m 33.25 10th · 3rd on team -0.031 PR SR